Change the Weather History Date:

Saturday, June 30, 2012

  Actual Average Record
Temperature  
Mean Temperature 82 °F -  
Max Temperature 84 °F 89 °F 95 °F (1952)
Min Temperature 79 °F 75 °F 70 °F (1955)
Cooling Degree Days 16    
Growing Degree Days 32 (Base 50)    
Moisture  
Dew Point 72 °F    
Average Humidity 72    
Maximum Humidity 82    
Minimum Humidity 61    
Precipitation  
Precipitation 0.00 in - - ()
Sea Level Pressure  
Sea Level Pressure 29.98 in    
Wind  
Wind Speed 7 mph (West)    
Max Wind Speed 13 mph    
Max Gust Speed 21 mph    
Visibility 10 miles    
Events      
Averages and records for this station are not official NWS values.
T = Trace of Precipitation, MM = Missing Value Source: NWS Daily Summary

Daily Weather History Graph

Daily Weather History Graph

Search for Another Location

Airport or City:

Trip Planner

Search our weather history database for the weather conditions in past years. The results will help you decide how hot, cold, wet, or windy it might be!

Date:

Astronomy

Jun. 30, 2012 Rise Set
Actual Time 6:38 AM EDT 8:30 PM EDT
Civil Twilight 6:11 AM EDT 8:57 PM EDT
Nautical Twilight 5:39 AM EDT 9:29 PM EDT
Astronomical Twilight 5:05 AM EDT 10:03 PM EDT
Moon 5:29 PM EDT (6/30) 3:26 AM EDT (6/30)
Length of Visible Light 14h 45m
Length of Day
13h 52m
Waxing Gibbous, 87% of the Moon is Illuminated
Jun 30
Waxing Gibbous
Jul 3
Full
Jul 10
Last Quarter
Jul 19
New
Jul 26
First Quarter

Hourly Weather History & Observations

Time (EDT) Temp. Heat Index Dew Point Humidity Pressure Visibility Wind Dir Wind Speed Gust Speed Precip Events Conditions
12:53 AM 80.1 °F 84.2 °F 73.0 °F 79% 29.98 in 10.0 mi Variable 4.6 mph - N/A   Clear
1:53 AM 80.1 °F 84.2 °F 73.0 °F 79% 29.97 in 10.0 mi West 6.9 mph - N/A   Clear
2:53 AM 80.1 °F 84.2 °F 73.0 °F 79% 29.96 in 10.0 mi West 6.9 mph - N/A   Clear
3:53 AM 80.1 °F 84.2 °F 73.0 °F 79% 29.94 in 10.0 mi WNW 5.8 mph - N/A   Clear
4:53 AM 79.0 °F - 73.0 °F 82% 29.93 in 10.0 mi WNW 4.6 mph - N/A   Clear
5:53 AM 79.0 °F - 73.0 °F 82% 29.94 in 10.0 mi WNW 4.6 mph - N/A   Clear
7:53 AM 79.0 °F - 73.0 °F 82% 29.98 in 10.0 mi Calm Calm - N/A   Partly Cloudy
8:53 AM 81.0 °F 85.2 °F 72.0 °F 74% 29.99 in 10.0 mi North - - N/A   Clear
9:53 AM 82.0 °F 86.3 °F 71.1 °F 69% 29.99 in 10.0 mi West 9.2 mph - N/A   Partly Cloudy
10:53 AM 82.9 °F 87.0 °F 70.0 °F 65% 30.01 in 10.0 mi WNW 6.9 mph 17.3 mph N/A   Partly Cloudy
11:53 AM 82.9 °F 87.0 °F 70.0 °F 65% 30.00 in 10.0 mi WNW 8.1 mph - N/A   Scattered Clouds
12:53 PM 84.0 °F 88.4 °F 70.0 °F 63% 29.99 in 10.0 mi West 6.9 mph - N/A   Clear
1:53 PM 84.0 °F 88.4 °F 70.0 °F 63% 29.98 in 10.0 mi West 8.1 mph 16.1 mph N/A   Clear
2:53 PM 84.9 °F 89.4 °F 70.0 °F 61% 29.97 in 10.0 mi West 12.7 mph - N/A   Clear
3:53 PM 84.0 °F 87.8 °F 69.1 °F 61% 29.97 in 10.0 mi West 11.5 mph 20.7 mph N/A   Clear
4:53 PM 84.0 °F 89.0 °F 71.1 °F 65% 29.96 in 10.0 mi West 11.5 mph - N/A   Clear
5:53 PM 84.0 °F 89.0 °F 71.1 °F 65% 29.96 in 10.0 mi West 10.4 mph - N/A   Clear
6:53 PM 84.0 °F 89.0 °F 71.1 °F 65% 29.97 in 10.0 mi NNW 8.1 mph - N/A   Clear
7:53 PM 82.9 °F 87.5 °F 71.1 °F 67% 29.98 in 10.0 mi West 10.4 mph - N/A   Clear
8:53 PM 82.0 °F 86.7 °F 72.0 °F 71% 29.99 in 10.0 mi West 8.1 mph - N/A   Clear
9:53 PM 81.0 °F 85.8 °F 73.0 °F 77% 30.01 in 10.0 mi West 4.6 mph - N/A   Clear
10:53 PM 81.0 °F 85.8 °F 73.0 °F 77% 30.01 in 10.0 mi West 3.5 mph - N/A   Clear
11:53 PM 81.0 °F 86.2 °F 73.9 °F 79% 30.01 in 10.0 mi West 4.6 mph - N/A   Clear